Location: Colonia Mina de C?rbuni
(46.1667°N, 22.7167°E)
Time: 15:42:22
(UTC+00:00)

Vanguard 1 - Visible Passes

Search period start: 13 April 2024 00:00
Search period end: 23 April 2024 00:00
Orbit: 653 x 3825 km, 34.2° (Epoch: 12 April)

Date Brightness Start Highest point End Pass type
(mag) Time Alt. Az. Time Alt. Az. Time Alt. Az.
13 Apr 13.4 02:54:56 10° SSW 03:07:35 23° SSE 03:16:28 10° ESE visible
14 Apr 14.0 01:01:48 10° SSE 01:05:23 11° SE 01:08:43 10° SE visible
14 Apr 13.2 03:13:30 10° SSW 03:27:54 28° SSE 03:37:25 10° ESE visible
15 Apr 13.8 01:15:22 10° S 01:25:37 16° SE 01:33:57 10° ESE visible
16 Apr 13.6 01:32:14 10° S 01:45:51 22° SSE 01:56:09 10° ESE visible
17 Apr 13.4 01:50:16 10° SSW 02:06:06 27° SSE 02:17:27 10° E visible
17 Apr 13.9 23:55:12 10° SSE 00:03:33 13° SE 00:11:00 10° ESE visible
18 Apr 13.2 02:08:58 10° SSW 02:26:23 33° SSE 02:38:17 10° E visible
19 Apr 13.7 00:14:04 14° SSE 00:23:38 19° SE 00:34:32 10° ESE visible
19 Apr 13.1 02:28:10 10° SW 02:46:41 38° SSE 02:58:52 10° E visible
20 Apr 13.6 00:32:54 17° S 00:43:44 25° SE 00:56:27 10° E visible
20 Apr 12.9 02:47:45 10° SW 03:07:00 43° SSE 03:19:16 10° E visible
21 Apr 13.4 00:51:38 19° S 01:03:54 30° SSE 01:17:40 10° E visible
21 Apr 13.8 22:57:40 14° SE 23:01:11 15° SE 23:10:48 10° ESE visible
22 Apr 13.2 01:10:17 19° SSW 01:24:06 36° SSE 01:38:29 10° E visible
22 Apr 13.6 23:16:14 19° SSE 23:21:05 21° SE 23:33:59 10° E visible
